Notices

What's New in latest Release from April 7th, 2021:

- Updated Glossary, including Speed of Maximum Gust, and Total Hourly Precipitation

- Updated national and regional climate services offices contacts and prices information

- Addition of station inventory lists for 1981-2010, 1971-2000, and 1961-1990 Normals.

If you haven't already, please take our survey and provide feedback about our website: https://eccc.sondage-survey.ca/f/LanguageSelection.aspx?s=442ca660-fcf1-47c0-95a9-59707d6fd709

Hourly Data Report for October 10, 2019

PINAWA
MANITOBA
Current Station Operator: ECCC - MSC

50°10'38.020" N
96°03'53.000" W
268.00 m
503B1ER
71448
WEA

Download Data

Hourly Data (October 2019)
Hourly Data Report for October 10, 2019
TIME
LST
Temp Definition
°C
Dew Point Definition
°C
Rel Hum Definition
%
Precip. Amount Definition
mm

Wind Dir Definition
10's deg

Wind Spd Definition
km/h
Visibility Definition
km
Stn Press Definition
kPa
Hmdx Definition


Wind Chill Definition


Weather Definition


00:00 2.3 LegendMM LegendMM LegendMM 36 16   98.61     LegendNANA
01:00 1.8 LegendMM LegendMM LegendMM 36 15   98.64     LegendNANA
02:00 1.8 LegendMM LegendMM LegendMM 2 17   98.64     LegendNANA
03:00 1.6 LegendMM LegendMM LegendMM 2 13   98.63     LegendNANA
04:00 1.6 LegendMM LegendMM LegendMM 3 22   98.68     LegendNANA
05:00 1.4 LegendMM LegendMM LegendMM 2 14   98.72     LegendNANA
06:00 1.3 LegendMM LegendMM LegendMM 1 16   98.64     LegendNANA
07:00 0.9 LegendMM LegendMM LegendMM 35 15   98.66     LegendNANA
08:00 1.3 LegendMM LegendMM LegendMM 1 14   98.68     LegendNANA
09:00 1.7 LegendMM LegendMM LegendMM 3 21   98.67     LegendNANA
10:00 1.7 LegendMM LegendMM LegendMM 3 18   98.57     LegendNANA
11:00 1.4 LegendMM LegendMM LegendMM 2 18   98.48     LegendNANA
12:00 0.7 LegendMM LegendMM LegendMM 1 10   98.55     LegendNANA
13:00 0.9 LegendMM LegendMM LegendMM 36 13   98.44     LegendNANA
14:00 0.8 LegendMM LegendMM LegendMM 35 15   98.41     LegendNANA
15:00 0.9 LegendMM LegendMM LegendMM 1 14   98.32     LegendNANA
16:00 1.3 LegendMM LegendMM LegendMM 1 11   98.29     LegendNANA
17:00 1.3 LegendMM LegendMM LegendMM 36 17   98.23     LegendNANA
18:00 1.1 LegendMM LegendMM LegendMM 35 17   98.19     LegendNANA
19:00 1.1 LegendMM LegendMM LegendMM 35 17   98.18     LegendNANA
20:00 0.6 LegendMM LegendMM LegendMM 35 17   98.18     LegendNANA
21:00 0.7 LegendMM LegendMM LegendMM 36 17   98.08     LegendNANA
22:00 0.5 LegendMM LegendMM LegendMM 35 18   98.00     LegendNANA
23:00 0.2 LegendMM LegendMM LegendMM 1 12   97.91     LegendNANA

Notes on Data Quality.

Legend

  • E = Estimated
  • M = Missing
  • NA = Not Available*
  • [empty] = Indicates an unobserved value
Date modified: